Flag for Norway Weather past 2 weeks in Bryne, Norway

Now
41 °F

Quite cool.


Feels Like: 36 °F
Forecast: 34 / 42 °F
Wind: 7 mph from Northwest

Location: Obrestad

Current Time: Mar 4, 2015 at 6:26:23 PM

Latest Report: Mar 4, 2015 at 5:00 PM


Visibility: N/A

Pressure: 30.11 "Hg

Humidity: 85%

Dew point: 37 °F

Location of BryneLocation

Historic Weather in Bryne — Graph

°F

Bryne temperature yesterday

Maximum temperature yesterday: 42 °F (at 3:00 PM)
Minimum temperature yesterday: 34 °F (at 1:00 AM)
Average temperature yesterday: 39 °F

Past Weeks' High & Low Weather Summary

 TemperatureHumidityPressure
High44 °F (Feb 18, 1:00 PM)98% (Feb 28, 4:00 PM)30.31 "Hg (Feb 28, 4:00 PM)
Low34 °F (Mar 3, 1:00 AM)61% (Feb 22, 7:00 AM)28.70 "Hg (Feb 23, 5:00 AM)
Average41 °F87%29.48 "Hg
* Reported Feb 17 4:00 PM — Mar 4 4:00 PM, Bryne, Weather by CustomWeather, © 2015

Note: Actual official high and low records may vary slightly from our data, if they occured in-between our weather recording intervals... More about our weather records

Advertising

Bryne weather history for previous 24 hours

 ConditionsComfort  
Time TempWeatherWind HumidityBarometerVisibility
4:00 PM
Wed, Mar 4
41 °FQuite cool.8 mph82%30.09 "HgN/A
3:00 PM40 °FQuite cool.8 mph80%30.06 "HgN/A
2:00 PM40 °FQuite cool.8 mph76%30.01 "HgN/A
1:00 PM40 °FQuite cool.8 mph76%29.98 "HgN/A
12:00 PM40 °FChilly.6 mph77%29.93 "HgN/A
11:00 AM38 °FChilly.5 mph85%29.89 "HgN/A
10:00 AM37 °FChilly.3 mph93%29.84 "HgN/A
9:00 AM35 °FChilly.3 mph94%29.79 "HgN/A
8:00 AM35 °FChilly.2 mph93%29.75 "HgN/A
7:00 AM35 °FChilly.2 mph92%29.70 "HgN/A
6:00 AM35 °FChilly.3 mph92%29.67 "HgN/A
5:00 AM35 °FChilly.6 mph90%29.65 "HgN/A
3:00 AM37 °FChilly.5 mph85%29.65 "HgN/A
2:00 AM39 °FChilly.6 mph82%29.64 "HgN/A
1:00 AM39 °FChilly.5 mph82%29.64 "HgN/A
12:00 AM38 °FChilly.5 mph77%29.65 "HgN/A
11:00 PM
Tue, Mar 3
39 °FChilly.5 mph77%29.65 "HgN/A
10:00 PM39 °FChilly.6 mph77%29.64 "HgN/A
9:00 PM39 °FChilly.6 mph80%29.62 "HgN/A
8:00 PM40 °FChilly.6 mph78%29.62 "HgN/A
7:00 PM39 °FChilly.3 mph78%29.61 "HgN/A
6:00 PM39 °FChilly.7 mph79%29.60 "HgN/A
Weather by CustomWeather, © 2015

See weather overviewHow to use our weather pages